Погода в Копьёве

Россия / Республика Хакасия     55°02′23″N   89°50′57″E
темп.,
°C
ветер,
м/с
пор.,
м/с
влажн.,
%
обл.,
%
осадки,
мм/ч
давл.,
гПа
погр.,
м
8 мая, сб
сб801:00+9з49565 0.0 1014243
04:00+8зюз2261100 0.0 101446
07:00+9з4861100 0.0 1015804
10:00+11з6104874 0.1 10142057
13:00+13з9123964 0.1 10142281
16:00+13з81540100 0.0 10132668
19:00+12з91556100 0.3 10121846
22:00+8сз5873100 0.9 1014935
9 мая, вс
вс901:00+6сз3477100 1.3 1015713
04:00+5ссз497898 0.1 1015841
07:00+3сз587295 0.1 1017813
10:00+5ссз5661100 0.1 10171362
13:00+6ссз665693 0.1 10181429
16:00+7ссз5647100 0.1 10181909
19:00+7ссз564583 0.1 10191589
22:00+4ссз24706 0.0 102183
10 мая, пн
пн1001:00+2ссз238724 0.0 102299
04:00+1ссз22938 0.0 102313
07:00+3с23795 0.0 1024201
10:00+7св335573 0.0 10231313
13:00+10всв334384 0.1 10221726
16:00+12св443994 0.0 10212026
19:00+9всв66505 0.0 10211217
22:00+6всв36713 0.0 1021151
11 мая, вт
вт1101:00+4всв22805 0.0 102017
04:00+3св22860 0.0 101814
07:00+5св25780 0.0 1018238
10:00+10всв56533 0.0 10161111
13:00+13всв563958 0.0 10141928
16:00+15в4432100 0.0 10132216
19:00+13ссв564199 0.0 10131850
22:00+9ссв346031 0.0 101456
12 мая, ср
ср1201:00+7с346833 0.0 101484
04:00+6с227785 0.0 101432
07:00+7с357229 0.0 1015242
10:00+11ссв4553100 0.0 10151122
13:00+13ссв5544100 0.6 10141773
16:00+13ссв5647100 1.3 10151706
19:00+11всв4560100 2.4 1017983
22:00+8св376870 0.7 1019378